Location: Brachbach
(49.1847°N, 9.7240°E)
Time: 14:21:04
(UTC+00:00)

CZ-2C R/B - Pass Details

Date: 08 August 2024
Orbit: 782 x 869 km, 98.3° (Epoch: 15 September)

Event Time Altitude Azimuth Distance (km) Brightness Sun altitude
Exits shadow 23:27:18 - 103° (ESE) 2,717 5.2 -25.0°
Reaches altitude 10° 23:28:08 10° 97° (E) 2,489 5.1 -25.0°
Maximum altitude 23:31:46 18° 56° (NE) 1,952 4.9 -25.0°
Drops below altitude 10° 23:35:22 10° 14° (NNE) 2,464 6.1 -25.0°
Sets 23:38:24 0° 357° (N) 3,386 7.2 -25.0°
